Location: Recife
(8.0585°S, 34.8848°W)
Time: 12:40:16
(UTC-03:00)

Courier 1B - Pass Details

Date: 19 April 2026
Orbit: 962 x 1209 km, 28.3° (Epoch: 7 May)

Event Time Altitude Azimuth Distance (km) Brightness Sun altitude
Rises 09:25:07 0° 230° (SW) 4,113 10.4 55.8°
Reaches altitude 10° 09:29:17 10° 211° (SSW) 3,148 10.0 56.6°
Maximum altitude 09:34:03 17° 173° (S) 2,640 9.8 57.6°
Drops below altitude 10° 09:38:46 10° 135° (SE) 3,101 10.3 58.5°
Sets 09:42:49 0° 115° (ESE) 4,024 10.9 59.3°
